Starlink 1227

operational
NORAD ID: 45230 Int'l Des: 2020-012 Owner: SPXS Country: US Constellation: starlink
LEOCIRCULARSTARLINK_TYPE

About Starlink 1227

Description loading...

Live Position

Loading 3D Globe...

Upcoming Passes

Altitude History

Altitude vs Time

uPlot chart will show altitude changes over time

Two-Line Element Set

1 45230U 20012BE 26034.50057330 .00009696 00000-0 33047-3 0 9997
2 45230 53.1587 157.8736 0001191 86.1448 273.9690 15.31038243330298
Epoch: Feb 3, 2026 • Age: 21 hours

Current Status

Altitude 473.7 km
Velocity 7.63 km/s
Sub-Earth Point -0.94°S, 62.41°E
Launch Date Feb 17, 2020
Age 5.9 years
Type internet

Technical Details

Classification Payload
Mass 260.00 kg
Dry Mass 248.00 kg
Total Mass 260.00 kg
Length 0.20 m
Diameter 2.80 m
Span 9.00 m
Shape Box + pan
Manufacturer SPXS
Bus Type Starlink
Phase Status In Orbit
Owner/State SPXS/US

Large Constellations

Loading constellations...